STARLINK-35297, 66010

Orbit data source: Space-Track

STARLINK-35297, 66010 is a payload satellite owned by SpaceX/Seattle (US) in LEO that was launched on Thu, 16 Oct 2025 UTC via an FALCON 9 launch vehicle from the Air Force Eastern Test Range (AFETR). Payload-class satellites include a variety of spacecraft equipped with specific instruments for various scientific and technological missions. These include communications satellites like Starlink; space stations such as the ISS; scientific satellites like the Hubble; Earth observation satellites from companies like Planet Labs, Umbra, and HawkEye 360; GPS; miniature CubeSats for education and research; and military/defense satellites.

Loading next visibility...
Identifier
66010, 2025-232F
Orbit
LEO
Country
Flag of USUS
Related business
Manufacturer
SpaceX/Seattle
Mission
Operational Commercial Communications
Bus & Motor
STARLINK V2MO, Unknown motor
Mass
575 kg wet, ~530 kg dry
Launch date (UTC)
2025-10-16 (8 months ago)
Launch vehicle
FALCON 9
Launch site
Air Force Eastern Test Range (AFETR)
Object type
Payload
Rocket body
Debris
Shape & HBR
Box + 2 Pan, 17.7 m
Radar Cross Section
36.964 m², Large (>1 m²)

Expand to show TLE details & history
Last TLE update: 17 hours ago

TLE from 17 hours ago
0 STARLINK-35297
1 66010U 25232F   26171.20986251  .00000161  00000-0  15909-4 0  9993
2 66010  53.1618 346.8756 0001255 109.1638 250.9500 15.34404993 39138
Epoch: 2026-06-20T05:02Z
TLE epoch observation values (Epoch: 2026-06-20T05:02:12.120Z)
Latitude
-0.00009°
Longitude
2.89727°
Altitude
463.87 km
Speed
7.636 km/s
True Right ascension
23h 07m 30s
True Declination
0° 00' 00"
Sunlit
Object was in daylight at epoch
Visualization orbit readout
Latitude
Unknown
Longitude
Unknown
Altitude
Unknown
Speed
Unknown
Apparent Right ascension
Unknown
Apparent Declination
Unknown
Sunlit
N/A
Visualization observer readout
Local Sidereal Time
08:41:53
Azimuth
Unknown
Elevation
Unknown
Doppler factor
Unknown
Orbital elements
Apogee altitude
463.804 km
Perigee altitude
462.086 km
Semi-major axis
6,841.082 km
Eccentricity
0.00013
Inclination
53.1618°
RAAN
346.8756°
Arg. of periapsis
109.1638°
True anomaly
250.93641°
Mean anomaly
250.95°
Eccentric anomaly
250.9432°
Mean motion
3.8358 °/min
Orbital period
93.85 mins
BSTAR
0.000015909
Loading maneuver chart data...
Computing Atmospheric mass density...
Loading historical data...
Loading historical data...
Loading historical data...
Loading historical data...
Loading historical data...
Loading historical data...
Loading historical data...

Documentation

Showing up to 5 results
|